Tracking 17938 objects as of 22-February-2017
HD Live streaming from Space Station
objects crossing your sky now

NAVSTAR 37 (USA 117)

Track NAVSTAR 37 (USA 117) now!
NAVSTAR 37 (USA 117) is classified as:


NORAD ID: 23833
Int'l Code: 1996-019A
Perigee: 20,701.5 km
Apogee: 20,753.6 km
Inclination: 54.4 °
Period: 739.9 minutes
Semi major axis: 27098 km
RCS: 4.1981 m2 (large)
Launch date: March 28, 1996
Source: United States (US)
Launch site: AIR FORCE EASTERN TEST RANGE (AFETR)
PRN:
Your satellite tracking list
Your tracking list is empty





NASA's NSSDC Master Catalog

Two Line Element Set (TLE):
1 23833U 96019A   17052.11467726 -.00000042  00000-0  00000+0 0  9999
2 23833  54.3899  37.1180 0009610 294.1833 166.0513  1.94618783152675
Source of the keplerian elements: AFSPC